| time (UTC) | temp F | wind direction | speed knots | gust knots | rain 1hr in | rain 24hr in | rain mn in | humidity % | barometer mb |
| 20260507062254 | 51 | 274 | 4.3 | 7.0 | 5.16 | 0.00 | 0.00 | ||
| 20260507060954 | 52 | 278 | 5.2 | 8.7 | 5.16 | 0.00 | 0.00 | ||
| 20260507055654 | 51 | 307 | 2.6 | 5.2 | 5.16 | 0.00 | 0.00 | ||
| 20260507054354 | 51 | 316 | 0.0 | 0.9 | 5.16 | 0.00 | 0.00 | ||
| 20260507053054 | 50 | 0 | 0.0 | 0.0 | 5.16 | 0.00 | 0.00 | ||
| 20260507051754 | 51 | 0 | 0.0 | 0.0 | 5.16 | 0.00 | 0.00 | ||
| 20260507050454 | 52 | 359 | 0.0 | 2.6 | 5.16 | 0.00 | 0.00 | ||
| 20260507045155 | 51 | 354 | 0.9 | 6.1 | 5.16 | 0.00 | 0.00 | ||
| 20260507043854 | 51 | 20 | 1.7 | 3.5 | 5.16 | 0.00 | 0.00 | ||
| 20260507042554 | 52 | 60 | 3.5 | 4.3 | 5.16 | 0.00 | 0.00 | ||
| 20260507041254 | 51 | 73 | 4.3 | 5.2 | 5.16 | 0.00 | 0.00 | ||
| 20260507035954 | 51 | 83 | 7.0 | 8.7 | 5.16 | 0.00 | 0.00 | ||
| 20260507034654 | 50 | 65 | 7.8 | 8.7 | 5.16 | 0.00 | 0.00 | ||
| 20260507033354 | 53 | 63 | 7.0 | 8.7 | 5.16 | 0.00 | 0.00 | ||
| 20260507032055 | 55 | 48 | 7.0 | 7.8 | 5.16 | 0.00 | 0.00 | ||
| 20260507025454 | 57 | 37 | 7.0 | 8.7 | 5.16 | 0.00 | 0.00 | ||
| 20260507024154 | 59 | 18 | 8.7 | 11.3 | 5.16 | 0.00 | 0.00 | ||
| 20260507022854 | 60 | 31 | 10.4 | 13.9 | 5.16 | 0.00 | 0.00 | ||
| 20260507021554 | 62 | 21 | 13.0 | 15.6 | 5.16 | 0.00 | 0.00 | ||
| 20260507020254 | 62 | 27 | 10.4 | 14.8 | 5.16 | 0.00 | 0.00 | ||
| 20260507014954 | 63 | 357 | 13.0 | 20.0 | 5.16 | 0.00 | 0.00 | ||
| 20260507013654 | 64 | 11 | 5.2 | 7.8 | 5.16 | 0.00 | 0.00 | ||
| 20260507012354 | 65 | 8 | 6.1 | 10.4 | 5.16 | 0.00 | 0.00 | ||
| 20260507011054 | 65 | 342 | 4.3 | 11.3 | 5.16 | 0.00 | 0.00 | ||
| 20260507005754 | 66 | 287 | 5.2 | 11.3 | 5.16 | 0.00 | 0.00 | ||
| 20260507004454 | 65 | 288 | 5.2 | 13.0 | 5.16 | 0.00 | 0.00 | ||
| 20260507003154 | 66 | 298 | 3.5 | 11.3 | 5.16 | 0.00 | 0.00 | ||
| 20260507001854 | 67 | 340 | 4.3 | 9.6 | 5.16 | 0.00 | 0.00 | ||
| 20260507000554 | 68 | 352 | 7.0 | 15.6 | 5.16 | 0.00 | 0.00 | ||
| 20260506235254 | 71 | 11 | 7.0 | 8.7 | 5.16 | 0.00 | 0.00 | ||
| 20260506233954 | 69 | 11 | 6.1 | 8.7 | 5.16 | 0.00 | 0.00 | ||
| 20260506232654 | 69 | 350 | 6.1 | 13.0 | 5.16 | 0.00 | 0.00 | ||
| 20260506230054 | 69 | 346 | 6.1 | 13.0 | 5.16 | 0.00 | 0.00 | ||
| 20260506224754 | 69 | 343 | 3.5 | 7.8 | 5.16 | 0.00 | 0.00 | ||
| 20260506223454 | 69 | 345 | 4.3 | 10.4 | 5.16 | 0.00 | 0.00 | ||
| 20260506222154 | 71 | 353 | 2.6 | 7.8 | 5.16 | 0.00 | 0.00 | ||
| 20260506220854 | 70 | 3 | 1.7 | 7.8 | 5.16 | 0.00 | 0.00 | ||
| 20260506215554 | 70 | 3 | 4.3 | 7.8 | 5.16 | 0.00 | 0.00 | ||
| 20260506214254 | 70 | 357 | 3.5 | 8.7 | 5.16 | 0.00 | 0.00 | ||
| 20260506212954 | 70 | 353 | 7.0 | 11.3 | 5.16 | 0.00 | 0.00 | ||
| 20260506211654 | 70 | 359 | 5.2 | 11.3 | 5.16 | 0.00 | 0.00 | ||
| 20260506210354 | 69 | 345 | 6.1 | 10.4 | 5.16 | 0.00 | 0.00 | ||
| 20260506205054 | 71 | 356 | 0.9 | 6.1 | 5.16 | 0.00 | 0.00 | ||
| 20260506203754 | 72 | 283 | 4.3 | 9.6 | 5.16 | 0.00 | 0.00 | ||
| 20260506202454 | 73 | 8 | 5.2 | 13.9 | 5.16 | 0.00 | 0.00 | ||
| 20260506201154 | 69 | 141 | 1.7 | 7.0 | 5.16 | 0.00 | 0.00 | ||
| 20260506195854 | 67 | 149 | 3.5 | 6.1 | 5.16 | 0.00 | 0.00 | ||
| 20260506194554 | 70 | 7 | 5.2 | 11.3 | 5.16 | 0.00 | 0.00 | ||
| 20260506193254 | 69 | 72 | 3.5 | 12.2 | 5.16 | 0.00 | 0.00 | ||
| 20260506191954 | 67 | 8 | 1.7 | 6.1 | 5.16 | 0.00 | 0.00 | ||
| 20260506190654 | 66 | 110 | 5.2 | 9.6 | 5.16 | 0.00 | 0.00 | ||
| 20260506185354 | 65 | 114 | 7.0 | 11.3 | 5.16 | 0.00 | 0.00 | ||
| 20260506184054 | 64 | 113 | 3.5 | 7.8 | 5.16 | 0.00 | 0.00 | ||
| 20260506182754 | 64 | 111 | 6.1 | 8.7 | 5.16 | 0.00 | 0.00 | ||
| 20260506181455 | 63 | 91 | 5.2 | 9.6 | 5.16 | 0.00 | 0.00 | ||
| 20260506180154 | 62 | 114 | 7.0 | 9.6 | 5.16 | 0.00 | 0.00 | ||
| 20260506174856 | 62 | 120 | 7.0 | 11.3 | 5.16 | 0.00 | 0.00 | ||
| 20260506173555 | 61 | 167 | 7.0 | 12.2 | 5.16 | 0.00 | 0.00 | ||
| 20260506170954 | 58 | 160 | 7.8 | 12.2 | 5.16 | 0.00 | 0.00 | ||
| 20260506165654 | 57 | 153 | 9.6 | 13.0 | 5.16 | 0.00 | 0.00 | ||
| 20260506164354 | 56 | 145 | 7.8 | 11.3 | 5.16 | 0.00 | 0.00 | ||
| 20260506163054 | 55 | 149 | 9.6 | 12.2 | 5.16 | 0.00 | 0.00 | ||
| 20260506161754 | 54 | 156 | 7.8 | 11.3 | 5.16 | 0.00 | 0.00 | ||
| 20260506160454 | 54 | 155 | 9.6 | 12.2 | 5.16 | 0.00 | 0.00 | ||
| 20260506153854 | 50 | 156 | 7.8 | 10.4 | 5.16 | 0.00 | 0.00 | ||
| 20260506152553 | 48 | 158 | 7.8 | 9.6 | 5.16 | 0.00 | 0.00 | ||
| 20260506151253 | 47 | 188 | 7.0 | 8.7 | 5.16 | 0.00 | 0.00 | ||
| 20260506145953 | 45 | 187 | 6.1 | 9.6 | 5.16 | 0.00 | 0.00 | ||
| 20260506144654 | 43 | 180 | 7.0 | 9.6 | 5.16 | 0.00 | 0.00 | ||
| 20260506143353 | 42 | 201 | 6.1 | 8.7 | 5.16 | 0.00 | 0.00 | ||
| 20260506142053 | 41 | 190 | 5.2 | 7.8 | 5.16 | 0.00 | 0.00 | ||
| 20260506140753 | 39 | 194 | 7.0 | 8.7 | 5.16 | 0.00 | 0.00 | ||
| 20260506135453 | 38 | 198 | 6.1 | 7.8 | 5.16 | 0.00 | 0.00 | ||
| 20260506134153 | 36 | 184 | 6.1 | 7.8 | 5.16 | 0.00 | 0.00 | ||
| 20260506132853 | 35 | 184 | 6.1 | 8.7 | 5.16 | 0.00 | 0.00 | ||
| 20260506131553 | 34 | 179 | 5.2 | 7.0 | 5.16 | 0.00 | 0.00 | ||
| 20260506130253 | 33 | 174 | 7.0 | 7.8 | 5.16 | 0.00 | 0.00 | ||
| 20260506124953 | 31 | 163 | 6.1 | 7.0 | 5.16 | 0.00 | 0.00 | ||
| 20260506123653 | 30 | 158 | 7.8 | 8.7 | 5.16 | 0.00 | 0.00 | ||
| 20260506122353 | 29 | 160 | 7.0 | 7.8 | 5.16 | 0.00 | 0.00 | ||
| 20260506121053 | 28 | 162 | 6.1 | 7.0 | 5.16 | 0.00 | 0.00 | ||
| 20260506115754 | 28 | 159 | 5.2 | 6.1 | 5.16 | 0.00 | 0.00 | ||
| 20260506114453 | 28 | 152 | 7.8 | 8.7 | 5.16 | 0.00 | 0.00 | ||
| 20260506113153 | 28 | 159 | 7.0 | 7.8 | 5.16 | 0.00 | 0.00 | ||
| 20260506111853 | 29 | 162 | 7.0 | 7.8 | 5.16 | 0.00 | 0.00 | ||
| 20260506110553 | 29 | 162 | 7.0 | 7.8 | 5.16 | 0.00 | 0.00 | ||
| 20260506105253 | 30 | 169 | 5.2 | 7.0 | 5.16 | 0.00 | 0.00 | ||
| 20260506103953 | 29 | 159 | 7.0 | 8.7 | 5.16 | 0.00 | 0.00 | ||
| 20260506102653 | 29 | 169 | 7.0 | 8.7 | 5.16 | 0.00 | 0.00 | ||
| 20260506101353 | 29 | 153 | 7.0 | 8.7 | 5.16 | 0.00 | 0.00 | ||
| 20260506100053 | 29 | 149 | 6.1 | 8.7 | 5.16 | 0.00 | 0.00 | ||
| 20260506094753 | 30 | 136 | 7.0 | 8.7 | 5.16 | 0.00 | 0.00 | ||
| 20260506093453 | 30 | 145 | 7.0 | 8.7 | 5.16 | 0.00 | 0.00 | ||
| 20260506092153 | 32 | 149 | 9.6 | 11.3 | 5.16 | 0.00 | 0.00 | ||
| 20260506090853 | 32 | 141 | 7.0 | 12.2 | 5.16 | 0.00 | 0.00 | ||
| 20260506085553 | 32 | 162 | 10.4 | 12.2 | 5.16 | 0.00 | 0.00 | ||
| 20260506084253 | 32 | 146 | 6.1 | 10.4 | 5.16 | 0.00 | 0.00 | ||
| 20260506082953 | 33 | 142 | 8.7 | 10.4 | 5.16 | 0.00 | 0.00 | ||
| 20260506081653 | 33 | 152 | 10.4 | 13.0 | 5.16 | 0.00 | 0.00 | ||
| 20260506080353 | 33 | 148 | 8.7 | 11.3 | 5.16 | 0.00 | 0.00 | ||
| 20260506072453 | 31 | 146 | 5.2 | 7.8 | 5.16 | 0.00 | 0.00 | ||
| 20260506071153 | 33 | 125 | 5.2 | 7.8 | 5.16 | 0.00 | 0.00 |